weather.gov     
National Weather Service

Regional Weather Roundup
NWS Homepage
This page is being discontinued on March 12, 2014.
The same data is available at this site. Please update your bookmarks.
Thank you, and we apologize for the inconvenience.
Please send an email to SR-SRH.Webmaster@noaa.gov with any concerns.


Current Version
Previous Version:    01  02  03  04  05  06  07  08  09  10  11  12  13  14  15  16  17  18  19  20  21  22  23  24  25  26  27  28  29  30  
   31  32  33  34  35  36  37  38  39  40  41  42  43  44  45  46  47  48  49  50  51  52  53  
[Printable]
730
ASUS44 KOUN 221200
RWROK

WEATHER ROUNDUP FOR OKLAHOMA
NATIONAL WEATHER SERVICE NORMAN OK
600 AM CST MON DEC 22 2014

NOTE: "FAIR" INDICATES FEW OR NO CLOUDS BELOW 12,000 FEET WITH NO
      SIGNIFICANT WEATHER AND/OR OBSTRUCTIONS TO VISIBILITY.

OKZ001>007-009>012-014-015-017-221300-
NORTHWEST OKLAHOMA AND THE PANHANDLE

CITY           SKY/WX    TMP DP  RH WIND       PRES   REMARKS
GAGE           MOCLDY    40  36  86 W12       29.58R WCI  33
6HR MIN TEMP:  38; 6HR MAX TEMP:  45;

$$

OKZ016-021>023-033>039-044-045-221300-
SOUTHWEST OKLAHOMA

CITY           SKY/WX    TMP DP  RH WIND       PRES   REMARKS
LAWTON/REGL    FOG       38  36  92 NW3       29.54R VSB 1/4
6HR MIN TEMP:  38; 6HR MAX TEMP:  47;

LAWTON/FT SILL FOG       41  41 100 N3        29.53R VSB 1/2
FREDERICK      PTCLDY    37  36  96 NW8       29.50R FOG     WCI  31
CLINTON        CLOUDY    43  41  93 N16       29.55R
HOBART         FOG       40  40 100 N14       29.57R VSB 1/4 WCI  32
ALTUS AFB      PTCLDY    39  39 100 NW13      29.56R WCI  32
$$

OKZ018>020-024>031-221300-
CENTRAL OKLAHOMA

CITY           SKY/WX    TMP DP  RH WIND       PRES   REMARKS
OKLAHOMA CITY  CLOUDY    48  45  89 W3        29.55R FOG
6HR MIN TEMP:  48; 6HR MAX TEMP:  49;

OKC/WILEY POST CLOUDY    49  46  90 SW5       29.56R FOG
OKC/TINKER AFB CLOUDY    48  46  91 S7        29.54R
STILLWATER     CLOUDY    48  46  93 SE7       29.56R FOG
GUTHRIE        CLOUDY    49  46  90 CALM      29.56R FOG
$$

OKZ008-013-054>072-221300-
NORTHEAST OKLAHOMA

CITY           SKY/WX    TMP DP  RH WIND       PRES   REMARKS
TULSA          DRIZZLE   47  46  97 SE10      29.58F FOG
6HR MIN TEMP:  46; 6HR MAX TEMP:  47; 6HR PCP:  0.01;

TULSA/JONES    CLOUDY    46  45  96 SE9       29.58F FOG
PONCA CITY     CLOUDY    47  45  93 SE12      29.56F FOG
BARTLESVILLE   CLOUDY    45  44  97 SE7       29.60F FOG
MUSKOGEE       CLOUDY    46  44  93 SE13      29.62F FOG
$$

OKZ032-040>043-046>053-073>077-221300-
SOUTH CENTRAL/SOUTHEAST OKLAHOMA

CITY           SKY/WX    TMP DP  RH WIND       PRES   REMARKS
MCALESTER      CLOUDY    52  47  83 SE10G17   29.59F
$$





U.S. Dept. of Commerce
NOAA National Weather Service
1325 East West Highway
Silver Spring, MD 20910
E-mail: w-nws.webmaster@noaa.gov
Page last modified: May 16, 2007
NATIONAL WEATHER SERVICE: for Safety, for Work, for Fun - FOR LIFE